sat.trackr.live / text

‹ back to catalog

STARLINK-32330

NORAD 61850 · 2024-202F

PAYLOAD ACTIVE UNKNOWN

§ Identity

Operator
Country
US
Launch date
2024-11-07
Launch site
AFETR
Launch vehicle
Mass (kg)
RCS (m²)

Purposes: comms

External: N2YO · Heavens-Above · Gunter

§ Orbital elements

Epoch: 2026-05-25T01:45:09.454176Z

Period
94.27 min
Inclination
43.0013°
Eccentricity
0.0001107
Mean motion
15.27579052 rev/d
Perigee alt
482.3 km
Apogee alt
483.8 km
Semi-major
6,861.2 km
B*
4.0154e-5
RAAN
166.2587°
Arg perigee
276.0366°
Mean anomaly
84.0360°
Rev number
8,702

§ Raw data

STARLINK-323301 61850U 24202F   26145.07302609  .00000843  00000+0  40154-4 0  99972 61850  43.0013 166.2587 0001107 276.0366  84.0360 15.27579052 87028

JSON: /api/v1/satellites/61850 · /tle

For live sub-satellite position, see the globe view (requires WebGL).

§ Visibility from observer

Set your observer location to see the next 7 days of passes ≥ 10°. The values pass through the URL so the page stays shareable.

No JS? Fill the form by hand. The geolocation button needs JavaScript.